Beijing, China

4:41 PM CST on May 28, 2017 (GMT +0800)
Beijing Capital

Weather History for ZBAA - May, 2017

Change the Weather History Date:

Saturday, May 20, 2017

  Actual Average Record
Temperature  
Mean Temperature 82 °F -  
Max Temperature 95 °F 85 °F 95 °F (2001)
Min Temperature 68 °F 62 °F 50 °F (2013)
Cooling Degree Days 16    
Growing Degree Days 32 (Base 50)    
Moisture  
Dew Point 59 °F    
Average Humidity 45    
Maximum Humidity 73    
Minimum Humidity 19    
Precipitation  
Precipitation 0.03 in 0.07 in - ()
Sea Level Pressure  
Sea Level Pressure 29.80 in    
Wind  
Wind Speed 6 mph ()    
Max Wind Speed 13 mph    
Max Gust Speed 25 mph    
Visibility 6.5 miles    
Events      
Averages and records for this station are not official NWS values.
T = Trace of Precipitation, MM = Missing Value Source: Averaged Metar Reports

Daily Weather History Graph

Daily Weather History Graph

Search for Another Location

Airport or City:

Trip Planner

Search our weather history database for the weather conditions in past years. The results will help you decide how hot, cold, wet, or windy it might be!

Date:

Astronomy

May. 20, 2017 Rise Set
Actual Time 4:54 AM CST 7:26 PM CST
Civil Twilight 4:23 AM CST 7:57 PM CST
Nautical Twilight 3:44 AM CST 8:36 PM CST
Astronomical Twilight 3:01 AM CST 9:20 PM CST
Moon 1:33 AM CST (5/20) 12:56 PM CST (5/20)
Length of Visible Light 15h 34m
Length of Day
14h 32m
Last Quarter, 38% of the Moon is Illuminated
May 20
Last Quarter
May 26
New
Jun 1
First Quarter
Jun 9
Full
Jun 17
Last Quarter

Hourly Weather History & Observations

Time (CST) Temp. Heat Index Dew Point Humidity Pressure Visibility Wind Dir Wind Speed Gust Speed Precip Events Conditions
12:00 AM 75.2 °F - 55.4 °F 50% 29.80 in - ESE 4.5 mph - N/A   Clear
12:30 AM 77.0 °F - 55.4 °F 47% 29.80 in - East 6.7 mph - N/A   Clear
1:00 AM 73.4 °F - 55.4 °F 53% 29.80 in - ESE 4.5 mph - N/A   Clear
1:30 AM 77.0 °F - 55.4 °F 47% 29.80 in - ESE 6.7 mph - N/A   Clear
2:00 AM 75 °F - 57 °F 43% 29.81 in 7 mi SSW 2.2 mph - -  
2:00 AM 75.2 °F - 57.2 °F 53% 29.80 in - SE 6.7 mph - N/A   Clear
2:30 AM 77.0 °F - 57.2 °F 50% 29.80 in - SE 8.9 mph - N/A   Clear
3:00 AM 75.2 °F - 59.0 °F 57% 29.80 in - ESE 6.7 mph - N/A   Clear
3:30 AM 73.4 °F - 59.0 °F 61% 29.80 in - East 4.5 mph - N/A   Clear
4:00 AM 71.6 °F - 59.0 °F 64% 29.80 in - East 4.5 mph - N/A   Clear
4:30 AM 71.6 °F - 59.0 °F 64% 29.80 in - East 4.5 mph - N/A   Clear
5:00 AM 70 °F - 60 °F 64% 29.82 in 5 mi NE 2.2 mph - -  
5:00 AM 68.0 °F - 59.0 °F 73% 29.83 in - ESE 4.5 mph - N/A   Clear
5:30 AM 68.0 °F - 59.0 °F 73% 29.83 in - Variable 2.2 mph - N/A   Clear
6:00 AM 69.8 °F - 60.8 °F 73% 29.83 in - Variable 2.2 mph - N/A   Clear
6:30 AM 73.4 °F - 60.8 °F 65% 29.83 in - NNE 2.2 mph - N/A   Clear
7:00 AM 75.2 °F - 60.8 °F 61% 29.86 in - Variable 2.2 mph - N/A   Clear
7:30 AM 77.0 °F - 62.6 °F 61% 29.86 in - SSE 4.5 mph - N/A   Clear
8:00 AM 78 °F - 63 °F 51% 29.85 in - SW 4.5 mph - -   Haze
8:00 AM 78.8 °F - 62.6 °F 57% 29.86 in - Variable 2.2 mph - N/A   Clear
8:30 AM 80.6 °F 81.8 °F 62.6 °F 54% 29.86 in - Variable 2.2 mph - N/A   Clear
9:00 AM 82.4 °F 83.4 °F 62.6 °F 51% 29.86 in - Variable 4.5 mph - N/A   Clear
9:30 AM 84.2 °F 85.0 °F 62.6 °F 48% 29.86 in - Variable 2.2 mph - N/A   Clear
10:00 AM 84.2 °F 85.0 °F 62.6 °F 48% 29.86 in - Variable 4.5 mph - N/A   Clear
10:30 AM 86.0 °F 86.6 °F 62.6 °F 45% 29.86 in - Variable 4.5 mph - N/A   Clear
11:00 AM 88 °F - 63 °F 33% 29.84 in 4 mi SSW 6.7 mph - -   Haze
11:00 AM 87.8 °F 88.5 °F 62.6 °F 43% 29.86 in - ESE 4.5 mph - N/A   Clear
11:30 AM 91.4 °F 92.1 °F 62.6 °F 38% 29.83 in - Variable 6.7 mph - N/A   Clear
12:00 PM 89.6 °F 88.9 °F 59.0 °F 36% 29.83 in 4.3 mi Variable 8.9 mph - N/A   Unknown
12:30 PM 93.2 °F 93.3 °F 60.8 °F 34% 29.80 in - Variable 8.9 mph - N/A   Clear
1:00 PM 93.2 °F 91.9 °F 57.2 °F 30% 29.80 in - South 8.9 mph - N/A   Clear
1:30 PM 93.2 °F 91.3 °F 55.4 °F 28% 29.77 in - SSE 11.2 mph - N/A   Clear
2:00 PM 94 °F - 56 °F 19% 29.77 in 8 mi South 6.7 mph - -   Mostly Cloudy
2:00 PM 95.0 °F 93.0 °F 55.4 °F 26% 29.77 in - SE 8.9 mph - N/A   Clear
2:30 PM 95.0 °F 93.0 °F 55.4 °F 26% 29.77 in - SSE 8.9 mph - N/A   Clear
3:00 PM 95.0 °F 93.0 °F 55.4 °F 26% 29.74 in - South 11.2 mph - N/A   Clear
3:30 PM 95.0 °F 92.7 °F 53.6 °F 25% 29.74 in - South 11.2 mph - N/A   Clear
4:00 PM 95.0 °F 92.7 °F 53.6 °F 25% 29.74 in - SSE 8.9 mph - N/A   Clear
4:30 PM 95.0 °F 93.0 °F 55.4 °F 26% 29.71 in - SSE 6.7 mph - N/A   Clear
5:00 PM 93 °F - 55 °F 19% 29.72 in 10 mi SSW 8.9 mph - -   Mostly Cloudy
5:00 PM 93.2 °F 91.9 °F 57.2 °F 30% 29.71 in - SSE 8.9 mph - N/A   Clear
5:30 PM 91.4 °F 89.9 °F 57.2 °F 31% 29.71 in - SSE 11.2 mph - N/A   Clear
6:00 PM 91.4 °F 91.4 °F 60.8 °F 36% 29.71 in - SSE 11.2 mph - N/A   Clear
6:30 PM 89.6 °F 89.5 °F 60.8 °F 38% 29.74 in - SSE 13.4 mph 24.6 mph N/A   Clear
7:00 PM 87.8 °F 87.6 °F 60.8 °F 40% 29.74 in - SSE 11.2 mph - N/A   Clear
7:30 PM 86.0 °F 86.1 °F 60.8 °F 43% 29.74 in - SSE 8.9 mph - N/A   Clear
8:00 PM 84 °F - 56 °F 29% 29.75 in 8 mi SE 6.7 mph - -   Clear
8:00 PM 84.2 °F 84.4 °F 60.8 °F 45% 29.74 in - SE 8.9 mph - N/A   Clear
8:30 PM 84.2 °F 84.4 °F 60.8 °F 45% 29.77 in - SE 11.2 mph - N/A   Clear
9:00 PM 82.4 °F 82.9 °F 60.8 °F 48% 29.77 in - SE 11.2 mph - N/A   Clear
9:30 PM 80.6 °F 81.1 °F 59.0 °F 48% 29.80 in - SE 8.9 mph - N/A   Clear
10:00 PM 80.6 °F 81.1 °F 59.0 °F 48% 29.80 in - ESE 8.9 mph - N/A   Clear
10:30 PM 78.8 °F - 60.8 °F 54% 29.80 in - ESE 6.7 mph - N/A   Clear
11:00 PM 79 °F - 60 °F 43% 29.80 in 6 mi ESE 6.7 mph - -  
11:00 PM 77.0 °F - 60.8 °F 57% 29.80 in - ESE 8.9 mph - N/A   Clear
11:30 PM 77.0 °F - 60.8 °F 57% 29.80 in - ESE 6.7 mph - N/A   Clear